Time,TemperatureF,DewpointF,PressureIn,WindDirection,WindDirectionDegrees,WindSpeedMPH,WindSpeedGustMPH,Humidity,HourlyPrecipIn,Conditions,Clouds,dailyrainin,SoftwareType,DateUTC
2013-09-24 00:02:00,46.6,28.9,24.10,NW,315,29.0,34.0,50,0.00,,,0.00,meteohub,2013-09-24 06:02:00,
2013-09-24 00:07:00,46.6,28.9,24.10,NW,315,29.0,34.0,50,0.00,,,0.00,meteohub,2013-09-24 06:07:00,
2013-09-24 00:12:00,46.2,29.5,24.10,West,270,26.0,34.0,52,0.00,,,0.00,meteohub,2013-09-24 06:12:00,
2013-09-24 00:17:00,46.4,29.7,24.10,West,270,30.0,30.0,52,0.00,,,0.00,meteohub,2013-09-24 06:17:00,
2013-09-24 00:22:00,46.6,29.5,24.10,NW,315,33.0,35.0,51,0.00,,,0.00,meteohub,2013-09-24 06:22:00,
2013-09-24 00:27:00,46.8,30.0,24.10,NW,315,33.0,37.0,52,0.00,,,0.00,meteohub,2013-09-24 06:27:00,
2013-09-24 00:32:00,46.6,29.8,24.09,WNW,293,36.0,37.0,52,0.00,,,0.00,meteohub,2013-09-24 06:32:00,
2013-09-24 00:37:00,46.8,30.0,24.10,West,270,36.0,37.0,52,0.00,,,0.00,meteohub,2013-09-24 06:37:00,
2013-09-24 00:42:00,46.4,30.2,24.09,NW,315,35.0,37.0,53,0.00,,,0.00,meteohub,2013-09-24 06:42:00,
2013-09-24 00:47:00,46.4,30.2,24.09,NW,315,38.0,38.0,53,0.00,,,0.00,meteohub,2013-09-24 06:47:00,
2013-09-24 00:52:00,46.2,30.6,24.09,NW,315,32.0,38.0,54,0.00,,,0.00,meteohub,2013-09-24 06:52:00,
2013-09-24 00:57:00,46.4,30.7,24.09,West,270,36.0,41.0,54,0.00,,,0.00,meteohub,2013-09-24 06:57:00,
2013-09-24 01:02:00,46.4,30.7,24.09,NW,315,40.0,41.0,54,0.00,,,0.00,meteohub,2013-09-24 07:02:00,
2013-09-24 01:07:00,46.4,30.7,24.09,NW,315,40.0,41.0,54,0.00,,,0.00,meteohub,2013-09-24 07:07:00,
2013-09-24 01:12:00,45.9,30.2,24.09,West,270,34.0,40.0,54,0.00,,,0.00,meteohub,2013-09-24 07:12:00,
2013-09-24 01:17:00,45.9,30.6,24.09,NW,315,35.0,40.0,55,0.00,,,0.00,meteohub,2013-09-24 07:17:00,
2013-09-24 01:22:00,46.0,30.7,24.10,West,270,31.0,40.0,55,0.00,,,0.00,meteohub,2013-09-24 07:22:00,
2013-09-24 01:27:00,45.9,30.6,24.10,NW,315,26.0,36.0,55,0.00,,,0.00,meteohub,2013-09-24 07:27:00,
2013-09-24 01:32:00,46.0,30.7,24.10,West,270,30.0,36.0,55,0.00,,,0.00,meteohub,2013-09-24 07:32:00,
2013-09-24 01:37:00,46.2,30.9,24.10,West,270,29.0,36.0,55,0.00,,,0.00,meteohub,2013-09-24 07:37:00,
2013-09-24 01:42:00,46.2,30.9,24.10,NW,315,30.0,36.0,55,0.00,,,0.00,meteohub,2013-09-24 07:42:00,
2013-09-24 01:47:00,46.4,31.1,24.10,West,270,34.0,39.0,55,0.00,,,0.00,meteohub,2013-09-24 07:47:00,
2013-09-24 01:52:00,46.2,30.9,24.10,WSW,248,29.0,39.0,55,0.00,,,0.00,meteohub,2013-09-24 07:52:00,
2013-09-24 01:57:00,46.2,30.9,24.10,NW,315,30.0,39.0,55,0.00,,,0.00,meteohub,2013-09-24 07:57:00,
2013-09-24 02:02:00,46.2,30.9,24.10,West,270,33.0,35.0,55,0.00,,,0.00,meteohub,2013-09-24 08:02:00,
2013-09-24 02:07:00,46.2,30.9,24.10,West,270,33.0,33.0,55,0.00,,,0.00,meteohub,2013-09-24 08:07:00,
2013-09-24 02:12:00,46.0,30.7,24.10,West,270,23.0,33.0,55,0.00,,,0.00,meteohub,2013-09-24 08:12:00,
2013-09-24 02:17:00,46.0,30.7,24.10,West,270,31.0,33.0,55,0.00,,,0.00,meteohub,2013-09-24 08:17:00,
2013-09-24 02:22:00,46.2,30.9,24.10,West,270,31.0,38.0,55,0.00,,,0.00,meteohub,2013-09-24 08:22:00,
2013-09-24 02:27:00,46.4,30.7,24.11,West,270,29.0,38.0,54,0.00,,,0.00,meteohub,2013-09-24 08:27:00,
2013-09-24 02:32:00,46.0,30.7,24.11,West,270,25.0,38.0,55,0.00,,,0.00,meteohub,2013-09-24 08:32:00,
2013-09-24 02:37:00,46.0,31.3,24.10,WSW,248,29.0,33.0,56,0.00,,,0.00,meteohub,2013-09-24 08:37:00,
2013-09-24 02:42:00,46.0,30.7,24.11,West,270,27.0,37.0,55,0.00,,,0.00,meteohub,2013-09-24 08:42:00,
2013-09-24 02:47:00,46.2,30.9,24.11,West,270,33.0,37.0,55,0.00,,,0.00,meteohub,2013-09-24 08:47:00,
2013-09-24 02:52:00,46.2,30.9,24.10,NW,315,34.0,37.0,55,0.00,,,0.00,meteohub,2013-09-24 08:52:00,
2013-09-24 02:57:00,46.4,30.7,24.11,West,270,26.0,35.0,54,0.00,,,0.00,meteohub,2013-09-24 08:57:00,
2013-09-24 03:02:00,46.4,30.7,24.12,West,270,27.0,35.0,54,0.00,,,0.00,meteohub,2013-09-24 09:02:00,
2013-09-24 03:07:00,46.4,30.7,24.12,West,270,27.0,34.0,54,0.00,,,0.00,meteohub,2013-09-24 09:07:00,
2013-09-24 03:12:00,46.0,30.7,24.12,West,270,22.0,34.0,55,0.00,,,0.00,meteohub,2013-09-24 09:12:00,
2013-09-24 03:17:00,45.7,30.9,24.12,SW,225,17.0,27.0,56,0.00,,,0.00,meteohub,2013-09-24 09:17:00,
2013-09-24 03:22:00,45.5,30.7,24.12,WSW,248,17.0,27.0,56,0.00,,,0.00,meteohub,2013-09-24 09:22:00,
2013-09-24 03:27:00,45.1,30.4,24.12,SW,225,17.0,23.0,56,0.00,,,0.00,meteohub,2013-09-24 09:27:00,
2013-09-24 03:32:00,45.1,30.4,24.12,SW,225,17.0,22.0,56,0.00,,,0.00,meteohub,2013-09-24 09:32:00,
2013-09-24 03:37:00,45.1,30.4,24.12,SW,225,18.0,18.0,56,0.00,,,0.00,meteohub,2013-09-24 09:37:00,
2013-09-24 03:42:00,45.1,30.7,24.12,SW,225,18.0,19.0,57,0.00,,,0.00,meteohub,2013-09-24 09:42:00,
2013-09-24 03:47:00,45.1,30.7,24.12,SW,225,19.0,19.0,57,0.00,,,0.00,meteohub,2013-09-24 09:47:00,
2013-09-24 03:52:00,45.3,30.9,24.12,SW,225,19.0,20.0,57,0.00,,,0.00,meteohub,2013-09-24 09:52:00,
2013-09-24 03:57:00,45.3,30.9,24.12,SW,225,19.0,21.0,57,0.00,,,0.00,meteohub,2013-09-24 09:57:00,
2013-09-24 04:02:00,45.1,30.7,24.12,SW,225,20.0,21.0,57,0.00,,,0.00,meteohub,2013-09-24 10:02:00,
2013-09-24 04:07:00,45.1,30.7,24.12,SW,225,20.0,21.0,57,0.00,,,0.00,meteohub,2013-09-24 10:07:00,
2013-09-24 04:12:00,44.8,31.3,24.11,SW,225,20.0,20.0,59,0.00,,,0.00,meteohub,2013-09-24 10:12:00,
2013-09-24 04:17:00,44.6,31.1,24.11,SW,225,20.0,23.0,59,0.00,,,0.00,meteohub,2013-09-24 10:17:00,
2013-09-24 04:22:00,44.6,31.1,24.11,SW,225,19.0,23.0,59,0.00,,,0.00,meteohub,2013-09-24 10:22:00,
2013-09-24 04:27:00,44.4,31.5,24.11,SW,225,19.0,23.0,60,0.00,,,0.00,meteohub,2013-09-24 10:27:00,
2013-09-24 04:32:00,44.4,31.5,24.10,SW,225,20.0,21.0,60,0.00,,,0.00,meteohub,2013-09-24 10:32:00,
2013-09-24 04:37:00,44.6,31.6,24.10,SW,225,22.0,22.0,60,0.00,,,0.00,meteohub,2013-09-24 10:37:00,
2013-09-24 04:42:00,44.2,31.6,24.10,SW,225,23.0,23.0,61,0.00,,,0.00,meteohub,2013-09-24 10:42:00,
2013-09-24 04:47:00,44.4,31.8,24.10,SW,225,26.0,26.0,61,0.00,,,0.00,meteohub,2013-09-24 10:47:00,
2013-09-24 04:52:00,44.2,31.6,24.10,SW,225,23.0,26.0,61,0.00,,,0.00,meteohub,2013-09-24 10:52:00,
2013-09-24 04:57:00,44.4,31.8,24.11,SW,225,23.0,26.0,61,0.00,,,0.00,meteohub,2013-09-24 10:57:00,
2013-09-24 05:02:00,44.4,31.8,24.11,SW,225,21.0,26.0,61,0.00,,,0.00,meteohub,2013-09-24 11:02:00,
2013-09-24 05:07:00,44.4,31.8,24.11,SW,225,21.0,23.0,61,0.00,,,0.00,meteohub,2013-09-24 11:07:00,
2013-09-24 05:12:00,44.8,31.8,24.11,SW,225,17.0,23.0,60,0.00,,,0.00,meteohub,2013-09-24 11:12:00,
2013-09-24 05:17:00,45.0,31.5,24.10,SW,225,19.0,24.0,59,0.00,,,0.00,meteohub,2013-09-24 11:17:00,
2013-09-24 05:22:00,45.3,31.5,24.10,SW,225,19.0,24.0,58,0.00,,,0.00,meteohub,2013-09-24 11:22:00,
2013-09-24 05:27:00,45.5,31.6,24.11,SW,225,19.0,24.0,58,0.00,,,0.00,meteohub,2013-09-24 11:27:00,
2013-09-24 05:32:00,45.3,31.5,24.10,SW,225,21.0,22.0,58,0.00,,,0.00,meteohub,2013-09-24 11:32:00,
2013-09-24 05:37:00,45.3,31.5,24.10,SW,225,18.0,22.0,58,0.00,,,0.00,meteohub,2013-09-24 11:37:00,
2013-09-24 05:42:00,45.3,31.5,24.10,SW,225,20.0,22.0,58,0.00,,,0.00,meteohub,2013-09-24 11:42:00,
2013-09-24 05:47:00,45.5,31.6,24.10,SW,225,21.0,22.0,58,0.00,,,0.00,meteohub,2013-09-24 11:47:00,
2013-09-24 05:52:00,45.1,31.3,24.10,SW,225,17.0,22.0,58,0.00,,,0.00,meteohub,2013-09-24 11:52:00,
2013-09-24 05:57:00,45.0,31.5,24.09,SW,225,21.0,21.0,59,0.00,,,0.00,meteohub,2013-09-24 11:57:00,
2013-09-24 06:07:00,45.3,31.5,24.10,SW,225,21.0,21.0,58,0.00,,,0.00,meteohub,2013-09-24 12:07:00,
2013-09-24 06:12:00,45.1,30.7,24.10,SW,225,17.0,21.0,57,0.00,,,0.00,meteohub,2013-09-24 12:12:00,
2013-09-24 06:17:00,45.1,30.7,24.10,SW,225,16.0,21.0,57,0.00,,,0.00,meteohub,2013-09-24 12:17:00,
2013-09-24 06:22:00,45.0,30.6,24.10,SW,225,15.0,21.0,57,0.00,,,0.00,meteohub,2013-09-24 12:22:00,
2013-09-24 06:27:00,45.0,30.6,24.10,SW,225,16.0,17.0,57,0.00,,,0.00,meteohub,2013-09-24 12:27:00,
2013-09-24 06:32:00,44.4,30.9,24.11,SSW,203,11.0,17.0,59,0.00,,,0.00,meteohub,2013-09-24 12:32:00,
2013-09-24 06:37:00,43.9,30.9,24.10,South,180,11.0,17.0,60,0.00,,,0.00,meteohub,2013-09-24 12:37:00,
2013-09-24 06:42:00,43.3,30.7,24.10,South,180,8.0,17.0,61,0.00,,,0.00,meteohub,2013-09-24 12:42:00,
2013-09-24 06:47:00,43.2,31.1,24.10,South,180,10.0,14.0,62,0.00,,,0.00,meteohub,2013-09-24 12:47:00,
2013-09-24 06:52:00,43.3,31.3,24.10,South,180,11.0,12.0,62,0.00,,,0.00,meteohub,2013-09-24 12:52:00,
2013-09-24 06:57:00,43.2,31.1,24.10,South,180,9.0,13.0,62,0.00,,,0.00,meteohub,2013-09-24 12:57:00,
2013-09-24 07:02:00,43.0,31.3,24.10,South,180,11.0,13.0,63,0.00,,,0.00,meteohub,2013-09-24 13:02:00,
2013-09-24 07:07:00,43.0,31.3,24.10,South,180,11.0,11.0,63,0.00,,,0.00,meteohub,2013-09-24 13:07:00,
2013-09-24 07:12:00,42.4,30.7,24.10,South,180,10.0,15.0,63,0.00,,,0.00,meteohub,2013-09-24 13:12:00,
2013-09-24 07:17:00,42.1,31.1,24.10,South,180,11.0,15.0,65,0.00,,,0.00,meteohub,2013-09-24 13:17:00,
2013-09-24 07:22:00,41.9,31.5,24.10,South,180,11.0,15.0,66,0.00,,,0.00,meteohub,2013-09-24 13:22:00,
2013-09-24 07:27:00,41.9,31.5,24.10,South,180,10.0,15.0,66,0.00,,,0.00,meteohub,2013-09-24 13:27:00,
2013-09-24 07:32:00,42.3,31.3,24.09,South,180,10.0,12.0,65,0.00,,,0.00,meteohub,2013-09-24 13:32:00,
2013-09-24 07:37:00,43.0,31.3,24.09,South,180,13.0,13.0,63,0.00,,,0.00,meteohub,2013-09-24 13:37:00,
2013-09-24 07:42:00,43.0,31.3,24.09,South,180,11.0,13.0,63,0.00,,,0.00,meteohub,2013-09-24 13:42:00,
2013-09-24 07:47:00,43.0,31.3,24.09,SSW,203,12.0,13.0,63,0.00,,,0.00,meteohub,2013-09-24 13:47:00,
2013-09-24 07:52:00,43.2,31.1,24.09,South,180,14.0,14.0,62,0.00,,,0.00,meteohub,2013-09-24 13:52:00,
2013-09-24 07:57:00,42.8,31.1,24.09,South,180,12.0,14.0,63,0.00,,,0.00,meteohub,2013-09-24 13:57:00,
2013-09-24 08:02:00,42.4,31.5,24.09,South,180,12.0,14.0,65,0.00,,,0.00,meteohub,2013-09-24 14:02:00,
2013-09-24 08:07:00,42.4,31.5,24.09,South,180,12.0,14.0,65,0.00,,,0.00,meteohub,2013-09-24 14:07:00,
2013-09-24 08:12:00,41.4,31.6,24.09,South,180,15.0,15.0,68,0.00,,,0.00,meteohub,2013-09-24 14:12:00,
2013-09-24 08:17:00,41.4,31.3,24.08,South,180,15.0,17.0,67,0.00,,,0.00,meteohub,2013-09-24 14:17:00,
2013-09-24 08:22:00,41.2,31.1,24.08,South,180,17.0,18.0,67,0.00,,,0.00,meteohub,2013-09-24 14:22:00,
2013-09-24 08:27:00,41.2,31.5,24.08,South,180,17.0,19.0,68,0.00,,,0.00,meteohub,2013-09-24 14:27:00,
2013-09-24 08:32:00,41.2,31.5,24.08,South,180,17.0,19.0,68,0.00,,,0.00,meteohub,2013-09-24 14:32:00,
2013-09-24 08:37:00,42.1,31.5,24.08,South,180,17.0,19.0,66,0.00,,,0.00,meteohub,2013-09-24 14:37:00,
2013-09-24 08:42:00,43.9,31.6,24.08,South,180,19.0,19.0,62,0.00,,,0.00,meteohub,2013-09-24 14:42:00,
2013-09-24 08:47:00,43.9,31.3,24.08,South,180,20.0,20.0,61,0.00,,,0.00,meteohub,2013-09-24 14:47:00,
2013-09-24 08:52:00,44.8,31.3,24.08,South,180,21.0,21.0,59,0.00,,,0.00,meteohub,2013-09-24 14:52:00,
2013-09-24 08:57:00,43.9,31.3,24.08,South,180,19.0,21.0,61,0.00,,,0.00,meteohub,2013-09-24 14:57:00,
2013-09-24 09:02:00,43.5,30.9,24.08,South,180,17.0,21.0,61,0.00,,,0.00,meteohub,2013-09-24 15:02:00,
2013-09-24 09:07:00,43.5,30.9,24.08,South,180,17.0,21.0,61,0.00,,,0.00,meteohub,2013-09-24 15:07:00,
2013-09-24 09:12:00,43.5,31.8,24.07,South,180,15.0,21.0,63,0.00,,,0.00,meteohub,2013-09-24 15:12:00,
2013-09-24 09:17:00,43.5,31.3,24.07,South,180,15.0,19.0,62,0.00,,,0.00,meteohub,2013-09-24 15:17:00,
2013-09-24 09:22:00,43.7,31.5,24.07,South,180,17.0,19.0,62,0.00,,,0.00,meteohub,2013-09-24 15:22:00,
2013-09-24 09:27:00,43.9,31.3,24.07,South,180,16.0,18.0,61,0.00,,,0.00,meteohub,2013-09-24 15:27:00,
2013-09-24 09:32:00,44.1,31.5,24.07,South,180,17.0,18.0,61,0.00,,,0.00,meteohub,2013-09-24 15:32:00,
2013-09-24 09:37:00,44.2,31.6,24.07,South,180,16.0,18.0,61,0.00,,,0.00,meteohub,2013-09-24 15:37:00,
2013-09-24 09:42:00,44.4,31.5,24.07,South,180,17.0,18.0,60,0.00,,,0.00,meteohub,2013-09-24 15:42:00,
2013-09-24 09:47:00,44.4,31.5,24.07,South,180,15.0,18.0,60,0.00,,,0.00,meteohub,2013-09-24 15:47:00,
2013-09-24 09:52:00,44.4,31.5,24.07,South,180,16.0,18.0,60,0.00,,,0.00,meteohub,2013-09-24 15:52:00,
2013-09-24 09:57:00,44.2,31.3,24.07,South,180,15.0,18.0,60,0.00,,,0.00,meteohub,2013-09-24 15:57:00,
2013-09-24 10:02:00,44.1,31.1,24.07,South,180,17.0,19.0,60,0.00,,,0.00,meteohub,2013-09-24 16:02:00,
2013-09-24 10:07:00,44.1,31.1,24.07,South,180,17.0,19.0,60,0.00,,,0.00,meteohub,2013-09-24 16:07:00,
2013-09-24 10:12:00,44.2,31.3,24.07,South,180,18.0,19.0,60,0.00,,,0.00,meteohub,2013-09-24 16:12:00,
2013-09-24 10:17:00,44.8,31.3,24.06,South,180,15.0,18.0,59,0.00,,,0.00,meteohub,2013-09-24 16:17:00,
2013-09-24 10:22:00,44.8,31.3,24.07,South,180,17.0,20.0,59,0.00,,,0.00,meteohub,2013-09-24 16:22:00,
2013-09-24 10:27:00,45.0,31.5,24.06,SSE,158,15.0,20.0,59,0.00,,,0.00,meteohub,2013-09-24 16:27:00,
2013-09-24 10:32:00,45.3,31.5,24.06,South,180,14.0,19.0,58,0.00,,,0.00,meteohub,2013-09-24 16:32:00,
2013-09-24 10:37:00,45.3,31.8,24.06,South,180,15.0,17.0,59,0.00,,,0.00,meteohub,2013-09-24 16:37:00,
2013-09-24 10:42:00,45.7,32.2,24.06,South,180,15.0,17.0,59,0.00,,,0.00,meteohub,2013-09-24 16:42:00,
2013-09-24 10:47:00,46.2,31.8,24.06,South,180,14.0,17.0,57,0.00,,,0.00,meteohub,2013-09-24 16:47:00,
2013-09-24 10:52:00,46.6,32.2,24.06,South,180,14.0,17.0,57,0.00,,,0.00,meteohub,2013-09-24 16:52:00,
2013-09-24 10:57:00,46.6,31.6,24.06,South,180,15.0,15.0,56,0.00,,,0.00,meteohub,2013-09-24 16:57:00,
2013-09-24 11:02:00,46.8,31.8,24.05,South,180,14.0,16.0,56,0.00,,,0.00,meteohub,2013-09-24 17:02:00,
2013-09-24 11:07:00,46.8,31.8,24.06,South,180,14.0,16.0,56,0.00,,,0.00,meteohub,2013-09-24 17:07:00,
2013-09-24 11:12:00,47.8,32.0,24.06,South,180,19.0,19.0,54,0.00,,,0.00,meteohub,2013-09-24 17:12:00,
2013-09-24 11:17:00,48.0,31.6,24.06,South,180,19.0,20.0,53,0.00,,,0.00,meteohub,2013-09-24 17:17:00,
2013-09-24 11:22:00,48.4,32.5,24.06,South,180,15.0,20.0,54,0.00,,,0.00,meteohub,2013-09-24 17:22:00,
2013-09-24 11:27:00,48.0,32.2,24.06,South,180,17.0,20.0,54,0.00,,,0.00,meteohub,2013-09-24 17:27:00,
2013-09-24 11:32:00,48.2,33.3,24.06,South,180,22.0,22.0,56,0.00,,,0.00,meteohub,2013-09-24 17:32:00,
2013-09-24 11:37:00,48.6,33.6,24.05,South,180,23.0,23.0,56,0.00,,,0.00,meteohub,2013-09-24 17:37:00,
2013-09-24 11:42:00,48.7,34.7,24.06,South,180,24.0,27.0,58,0.00,,,0.00,meteohub,2013-09-24 17:42:00,
2013-09-24 11:47:00,48.0,34.0,24.05,South,180,27.0,27.0,58,0.00,,,0.00,meteohub,2013-09-24 17:47:00,
2013-09-24 11:52:00,47.1,35.6,24.05,South,180,25.0,27.0,64,0.00,,,0.00,meteohub,2013-09-24 17:52:00,
2013-09-24 11:57:00,47.1,36.3,24.05,South,180,19.0,29.0,66,0.00,,,0.00,meteohub,2013-09-24 17:57:00,
2013-09-24 12:02:00,47.3,36.9,24.04,South,180,17.0,29.0,67,0.00,,,0.00,meteohub,2013-09-24 18:02:00,
2013-09-24 12:07:00,47.3,36.9,24.04,South,180,17.0,25.0,67,0.00,,,0.00,meteohub,2013-09-24 18:07:00,
2013-09-24 12:12:00,47.1,36.0,24.04,South,180,24.0,24.0,65,0.00,,,0.00,meteohub,2013-09-24 18:12:00,
2013-09-24 12:17:00,46.8,36.0,24.04,South,180,17.0,24.0,66,0.00,,,0.00,meteohub,2013-09-24 18:17:00,
2013-09-24 12:22:00,46.9,36.1,24.03,South,180,20.0,24.0,66,0.00,,,0.00,meteohub,2013-09-24 18:22:00,
2013-09-24 12:27:00,47.1,36.3,24.03,South,180,21.0,24.0,66,0.00,,,0.00,meteohub,2013-09-24 18:27:00,
2013-09-24 12:37:00,47.3,36.1,24.03,South,180,24.0,24.0,65,0.00,,,0.00,meteohub,2013-09-24 18:37:00,
2013-09-24 12:42:00,47.3,36.9,24.02,South,180,26.0,26.0,67,0.00,,,0.00,meteohub,2013-09-24 18:42:00,
2013-09-24 12:47:00,47.8,37.4,24.02,South,180,21.0,28.0,67,0.00,,,0.00,meteohub,2013-09-24 18:47:00,
2013-09-24 12:52:00,48.0,37.2,24.02,South,180,30.0,30.0,66,0.00,,,0.00,meteohub,2013-09-24 18:52:00,
2013-09-24 12:57:00,48.7,37.0,24.02,South,180,30.0,30.0,64,0.00,,,0.00,meteohub,2013-09-24 18:57:00,
2013-09-24 13:02:00,48.9,38.1,24.01,South,180,26.0,30.0,66,0.00,,,0.00,meteohub,2013-09-24 19:02:00,
2013-09-24 13:07:00,48.9,38.1,24.01,South,180,26.0,30.0,66,0.00,,,0.00,meteohub,2013-09-24 19:07:00,
2013-09-24 13:12:00,48.6,38.5,24.01,South,180,23.0,30.0,68,0.00,,,0.00,meteohub,2013-09-24 19:12:00,
2013-09-24 13:17:00,49.1,38.7,24.01,South,180,24.0,29.0,67,0.00,,,0.00,meteohub,2013-09-24 19:17:00,
2013-09-24 13:22:00,48.2,38.5,24.01,South,180,19.0,29.0,69,0.00,,,0.00,meteohub,2013-09-24 19:22:00,
2013-09-24 13:27:00,47.7,37.9,24.00,South,180,26.0,28.0,69,0.00,,,0.00,meteohub,2013-09-24 19:27:00,
2013-09-24 13:32:00,46.9,38.7,24.01,South,180,23.0,26.0,73,0.00,,,0.00,meteohub,2013-09-24 19:32:00,
2013-09-24 13:37:00,46.8,38.8,24.00,South,180,23.0,26.0,74,0.00,,,0.00,meteohub,2013-09-24 19:37:00,
2013-09-24 13:42:00,46.4,39.2,24.01,South,180,20.0,26.0,76,0.00,,,0.00,meteohub,2013-09-24 19:42:00,
2013-09-24 13:47:00,45.9,40.3,24.01,South,180,23.0,25.0,81,0.00,,,0.00,meteohub,2013-09-24 19:47:00,
2013-09-24 13:52:00,45.3,41.4,24.01,South,180,15.0,25.0,86,0.00,,,0.00,meteohub,2013-09-24 19:52:00,
2013-09-24 13:57:00,45.3,41.9,24.01,South,180,17.0,23.0,88,0.00,,,0.00,meteohub,2013-09-24 19:57:00,
2013-09-24 14:02:00,45.1,41.5,24.01,South,180,17.0,23.0,87,0.00,,,0.00,meteohub,2013-09-24 20:02:00,
2013-09-24 14:07:00,45.1,41.5,24.01,South,180,17.0,19.0,87,0.00,,,0.00,meteohub,2013-09-24 20:07:00,
2013-09-24 14:12:00,44.8,42.3,24.01,South,180,17.0,19.0,91,0.00,,,0.00,meteohub,2013-09-24 20:12:00,
2013-09-24 14:17:00,44.6,42.6,24.01,SW,225,12.0,17.0,93,0.00,,,0.00,meteohub,2013-09-24 20:17:00,
2013-09-24 14:22:00,44.6,43.3,24.01,SW,225,13.0,17.0,95,0.00,,,0.00,meteohub,2013-09-24 20:22:00,
2013-09-24 14:27:00,44.6,43.3,24.01,SW,225,12.0,17.0,95,0.00,,,0.00,meteohub,2013-09-24 20:27:00,
2013-09-24 14:32:00,44.8,43.5,24.01,SW,225,11.0,16.0,95,0.00,,,0.00,meteohub,2013-09-24 20:32:00,
2013-09-24 14:37:00,44.6,41.2,24.00,NNE,23,17.0,17.0,88,0.00,,,0.00,meteohub,2013-09-24 20:37:00,
2013-09-24 14:42:00,44.8,41.7,24.00,South,180,14.0,17.0,89,0.00,,,0.00,meteohub,2013-09-24 20:42:00,
2013-09-24 14:47:00,44.6,41.2,24.00,SW,225,15.0,17.0,88,0.00,,,0.00,meteohub,2013-09-24 20:47:00,
2013-09-24 14:52:00,44.4,41.7,24.00,SW,225,11.0,17.0,90,0.00,,,0.00,meteohub,2013-09-24 20:52:00,
2013-09-24 14:57:00,44.4,41.4,24.00,SSW,203,12.0,17.0,89,0.00,,,0.00,meteohub,2013-09-24 20:57:00,
2013-09-24 15:02:00,44.4,41.7,24.00,South,180,11.0,16.0,90,0.00,,,0.00,meteohub,2013-09-24 21:02:00,
2013-09-24 15:07:00,44.4,41.7,24.00,South,180,11.0,13.0,90,0.00,,,0.00,meteohub,2013-09-24 21:07:00,
2013-09-24 15:12:00,44.4,41.9,23.99,SW,225,11.0,12.0,91,0.00,,,0.00,meteohub,2013-09-24 21:12:00,
2013-09-24 15:17:00,44.4,42.8,23.99,SSW,203,12.0,12.0,94,0.00,,,0.00,meteohub,2013-09-24 21:17:00,
2013-09-24 15:22:00,44.2,43.0,23.99,South,180,10.0,15.0,95,0.00,,,0.00,meteohub,2013-09-24 21:22:00,
2013-09-24 15:27:00,44.1,42.4,23.99,South,180,11.0,15.0,94,0.00,,,0.00,meteohub,2013-09-24 21:27:00,
2013-09-24 15:32:00,44.2,43.5,23.99,SW,225,6.0,15.0,97,0.00,,,0.00,meteohub,2013-09-24 21:32:00,
2013-09-24 15:37:00,44.1,43.5,23.99,SW,225,6.0,12.0,98,0.00,,,0.00,meteohub,2013-09-24 21:37:00,
2013-09-24 15:42:00,44.1,43.9,23.98,SSW,203,8.0,11.0,99,0.00,,,0.00,meteohub,2013-09-24 21:42:00,
2013-09-24 15:47:00,43.9,43.7,23.98,South,180,8.0,9.0,99,0.00,,,0.00,meteohub,2013-09-24 21:47:00,
2013-09-24 15:52:00,43.7,43.5,23.98,SSW,203,9.0,9.0,99,0.00,,,0.00,meteohub,2013-09-24 21:52:00,
2013-09-24 15:57:00,43.5,43.3,23.98,South,180,8.0,10.0,99,0.00,,,0.00,meteohub,2013-09-24 21:57:00,
2013-09-24 16:02:00,43.5,43.3,23.97,SW,225,6.0,10.0,99,0.00,,,0.00,meteohub,2013-09-24 22:02:00,
2013-09-24 16:07:00,43.5,43.3,23.97,SW,225,6.0,10.0,99,0.00,,,0.00,meteohub,2013-09-24 22:07:00,
2013-09-24 16:12:00,43.0,42.8,23.98,SW,225,6.0,8.0,99,0.00,,,0.00,meteohub,2013-09-24 22:12:00,
2013-09-24 16:17:00,43.2,43.0,23.97,SW,225,6.0,7.0,99,0.00,,,0.00,meteohub,2013-09-24 22:17:00,
2013-09-24 16:22:00,43.0,42.8,23.97,West,270,6.0,8.0,99,0.00,,,0.00,meteohub,2013-09-24 22:22:00,
2013-09-24 16:27:00,42.8,42.6,23.97,WSW,248,8.0,9.0,99,0.00,,,0.00,meteohub,2013-09-24 22:27:00,
2013-09-24 16:32:00,42.6,42.4,23.97,SW,225,5.0,9.0,99,0.00,,,0.00,meteohub,2013-09-24 22:32:00,
2013-09-24 16:37:00,42.8,42.6,23.97,SW,225,7.0,9.0,99,0.00,,,0.00,meteohub,2013-09-24 22:37:00,
2013-09-24 16:42:00,42.8,42.6,23.97,SW,225,6.0,8.0,99,0.00,,,0.00,meteohub,2013-09-24 22:42:00,
2013-09-24 16:47:00,42.6,42.4,23.97,SW,225,6.0,8.0,99,0.00,,,0.00,meteohub,2013-09-24 22:47:00,
2013-09-24 16:52:00,42.4,42.3,23.97,SW,225,5.0,8.0,99,0.00,,,0.00,meteohub,2013-09-24 22:52:00,
2013-09-24 17:02:00,42.1,41.9,23.97,SW,225,7.0,8.0,99,0.00,,,0.00,meteohub,2013-09-24 23:02:00,
2013-09-24 17:07:00,42.1,41.9,23.97,SW,225,7.0,8.0,99,0.00,,,0.00,meteohub,2013-09-24 23:07:00,
2013-09-24 17:12:00,41.4,41.2,23.97,NW,315,6.0,8.0,99,0.00,,,0.00,meteohub,2013-09-24 23:12:00,
2013-09-24 17:17:00,41.2,41.0,23.97,NW,315,9.0,9.0,99,0.00,,,0.00,meteohub,2013-09-24 23:17:00,
2013-09-24 17:22:00,40.8,40.6,23.97,West,270,8.0,9.0,99,0.00,,,0.00,meteohub,2013-09-24 23:22:00,
2013-09-24 17:27:00,40.5,40.3,23.96,West,270,15.0,15.0,99,0.00,,,0.00,meteohub,2013-09-24 23:27:00,
2013-09-24 17:32:00,40.1,39.9,23.96,West,270,14.0,15.0,99,0.00,,,0.00,meteohub,2013-09-24 23:32:00,
2013-09-24 17:37:00,40.1,39.9,23.96,West,270,15.0,15.0,99,0.00,,,0.00,meteohub,2013-09-24 23:37:00,
2013-09-24 17:42:00,40.1,39.4,23.96,West,270,15.0,16.0,97,0.00,,,0.00,meteohub,2013-09-24 23:42:00,
2013-09-24 17:47:00,39.9,39.2,23.96,West,270,17.0,17.0,97,0.00,,,0.00,meteohub,2013-09-24 23:47:00,
2013-09-24 17:52:00,39.7,39.0,23.96,NW,315,17.0,18.0,97,0.00,,,0.00,meteohub,2013-09-24 23:52:00,
2013-09-24 17:57:00,39.6,38.8,23.96,NW,315,17.0,20.0,97,0.00,,,0.00,meteohub,2013-09-24 23:57:00,
2013-09-24 18:02:00,39.6,38.8,23.96,NW,315,19.0,20.0,97,0.00,,,0.00,meteohub,2013-09-25 00:02:00,
2013-09-24 18:07:00,39.6,38.8,23.95,NW,315,19.0,20.0,97,0.00,,,0.00,meteohub,2013-09-25 00:07:00,
2013-09-24 18:12:00,39.7,38.7,23.95,West,270,21.0,21.0,96,0.00,,,0.00,meteohub,2013-09-25 00:12:00,
2013-09-24 18:17:00,39.7,39.0,23.95,NW,315,17.0,21.0,97,0.00,,,0.00,meteohub,2013-09-25 00:17:00,
2013-09-24 18:22:00,39.4,38.8,23.95,NW,315,17.0,21.0,98,0.00,,,0.00,meteohub,2013-09-25 00:22:00,
2013-09-24 18:27:00,39.0,38.8,23.95,NW,315,16.0,21.0,99,0.00,,,0.00,meteohub,2013-09-25 00:27:00,
2013-09-24 18:32:00,39.2,39.0,23.95,NW,315,17.0,18.0,99,0.00,,,0.00,meteohub,2013-09-25 00:32:00,
2013-09-24 18:37:00,39.6,39.0,23.95,NW,315,17.0,20.0,98,0.00,,,0.00,meteohub,2013-09-25 00:37:00,
2013-09-24 18:42:00,39.4,38.8,23.95,NW,315,14.0,20.0,98,0.00,,,0.00,meteohub,2013-09-25 00:42:00,
2013-09-24 18:47:00,39.2,39.0,23.95,NW,315,12.0,20.0,99,0.00,,,0.00,meteohub,2013-09-25 00:47:00,
2013-09-24 18:52:00,39.4,38.8,23.95,North,0,10.0,18.0,98,0.00,,,0.00,meteohub,2013-09-25 00:52:00,
2013-09-24 18:57:00,39.4,38.8,23.95,NW,315,15.0,15.0,98,0.00,,,0.00,meteohub,2013-09-25 00:57:00,
2013-09-24 19:02:00,39.6,38.5,23.95,NW,315,12.0,15.0,96,0.00,,,0.00,meteohub,2013-09-25 01:02:00,
2013-09-24 19:07:00,39.6,38.5,23.95,NW,315,12.0,15.0,96,0.00,,,0.00,meteohub,2013-09-25 01:07:00,
2013-09-24 19:12:00,39.6,38.3,23.95,NW,315,10.0,16.0,95,0.00,,,0.00,meteohub,2013-09-25 01:12:00,
2013-09-24 19:17:00,39.6,38.5,23.95,NW,315,11.0,16.0,96,0.00,,,0.00,meteohub,2013-09-25 01:17:00,
2013-09-24 19:22:00,39.4,38.7,23.96,NW,315,11.0,16.0,97,0.00,,,0.00,meteohub,2013-09-25 01:22:00,
2013-09-24 19:27:00,39.2,38.5,23.96,NW,315,4.0,13.0,97,0.00,,,0.00,meteohub,2013-09-25 01:27:00,
2013-09-24 19:32:00,39.0,38.5,23.96,SW,225,11.0,12.0,98,0.00,,,0.00,meteohub,2013-09-25 01:32:00,
2013-09-24 19:37:00,39.2,38.5,23.96,West,270,13.0,15.0,97,0.00,,,0.00,meteohub,2013-09-25 01:37:00,
2013-09-24 19:42:00,39.2,38.1,23.96,NW,315,11.0,15.0,96,0.00,,,0.00,meteohub,2013-09-25 01:42:00,
2013-09-24 19:47:00,39.2,38.5,23.96,West,270,12.0,16.0,97,0.00,,,0.00,meteohub,2013-09-25 01:47:00,
2013-09-24 19:52:00,39.0,38.3,23.96,West,270,11.0,16.0,97,0.00,,,0.00,meteohub,2013-09-25 01:52:00,
2013-09-24 19:57:00,38.8,38.3,23.96,West,270,11.0,16.0,98,0.00,,,0.00,meteohub,2013-09-25 01:57:00,
2013-09-24 20:02:00,39.0,37.9,23.96,West,270,9.0,15.0,96,0.00,,,0.00,meteohub,2013-09-25 02:02:00,
2013-09-24 20:07:00,39.0,37.9,23.96,West,270,9.0,15.0,96,0.00,,,0.00,meteohub,2013-09-25 02:07:00,
2013-09-24 20:12:00,38.8,38.1,23.96,West,270,11.0,15.0,97,0.00,,,0.00,meteohub,2013-09-25 02:12:00,
2013-09-24 20:17:00,38.8,38.1,23.96,West,270,8.0,13.0,97,0.00,,,0.00,meteohub,2013-09-25 02:17:00,
2013-09-24 20:22:00,38.8,37.8,23.96,West,270,5.0,13.0,96,0.00,,,0.00,meteohub,2013-09-25 02:22:00,
2013-09-24 20:27:00,38.8,37.8,23.96,SW,225,4.0,13.0,96,0.00,,,0.00,meteohub,2013-09-25 02:27:00,
2013-09-24 20:32:00,38.7,37.6,23.95,South,180,0.0,11.0,96,0.00,,,0.00,meteohub,2013-09-25 02:32:00,
2013-09-24 20:37:00,38.7,38.1,23.95,East,90,9.0,9.0,98,0.00,,,0.00,meteohub,2013-09-25 02:37:00,
2013-09-24 20:42:00,38.5,38.3,23.95,SE,135,6.0,11.0,99,0.00,,,0.00,meteohub,2013-09-25 02:42:00,
2013-09-24 20:47:00,38.3,38.1,23.95,SE,135,10.0,11.0,99,0.00,,,0.00,meteohub,2013-09-25 02:47:00,
2013-09-24 20:52:00,38.3,38.1,23.96,South,180,11.0,11.0,99,0.00,,,0.00,meteohub,2013-09-25 02:52:00,
2013-09-24 20:57:00,37.9,37.8,23.97,South,180,7.0,11.0,99,0.00,,,0.00,meteohub,2013-09-25 02:57:00,
2013-09-24 21:02:00,37.9,37.8,23.97,SW,225,8.0,11.0,99,0.00,,,0.00,meteohub,2013-09-25 03:02:00,
2013-09-24 21:07:00,37.9,37.8,23.97,SW,225,8.0,11.0,99,0.00,,,0.00,meteohub,2013-09-25 03:07:00,
2013-09-24 21:12:00,37.8,37.6,23.96,SW,225,8.0,12.0,99,0.00,,,0.00,meteohub,2013-09-25 03:12:00,
2013-09-24 21:17:00,38.1,37.9,23.96,SW,225,9.0,12.0,99,0.00,,,0.00,meteohub,2013-09-25 03:17:00,
2013-09-24 21:22:00,38.1,37.9,23.96,South,180,11.0,12.0,99,0.00,,,0.00,meteohub,2013-09-25 03:22:00,
2013-09-24 21:27:00,37.8,37.6,23.95,South,180,4.0,11.0,99,0.00,,,0.00,meteohub,2013-09-25 03:27:00,
2013-09-24 21:32:00,37.6,37.4,23.95,South,180,4.0,11.0,99,0.00,,,0.00,meteohub,2013-09-25 03:32:00,
2013-09-24 21:37:00,37.8,37.6,23.95,South,180,4.0,11.0,99,0.00,,,0.00,meteohub,2013-09-25 03:37:00,
2013-09-24 21:42:00,37.9,37.8,23.97,South,180,12.0,12.0,99,0.00,,,0.00,meteohub,2013-09-25 03:42:00,
2013-09-24 21:47:00,38.7,38.1,23.97,SW,225,11.0,12.0,98,0.00,,,0.00,meteohub,2013-09-25 03:47:00,
2013-09-24 21:52:00,38.3,38.1,23.98,SW,225,11.0,15.0,99,0.00,,,0.00,meteohub,2013-09-25 03:52:00,
2013-09-24 21:57:00,38.1,37.9,23.97,South,180,10.0,15.0,99,0.00,,,0.00,meteohub,2013-09-25 03:57:00,
2013-09-24 22:02:00,38.3,38.1,23.97,South,180,9.0,12.0,99,0.00,,,0.00,meteohub,2013-09-25 04:02:00,
2013-09-24 22:07:00,38.3,38.1,23.97,South,180,9.0,11.0,99,0.00,,,0.00,meteohub,2013-09-25 04:07:00,
2013-09-24 22:12:00,38.5,37.8,23.98,South,180,8.0,11.0,97,0.00,,,0.00,meteohub,2013-09-25 04:12:00,
2013-09-24 22:17:00,38.1,37.9,23.97,SE,135,10.0,11.0,99,0.00,,,0.00,meteohub,2013-09-25 04:17:00,
2013-09-24 22:22:00,37.8,37.6,23.98,South,180,8.0,11.0,99,0.00,,,0.00,meteohub,2013-09-25 04:22:00,
2013-09-24 22:27:00,37.8,37.6,23.96,South,180,7.0,10.0,99,0.00,,,0.00,meteohub,2013-09-25 04:27:00,
2013-09-24 22:32:00,37.9,37.8,23.96,South,180,3.0,10.0,99,0.00,,,0.00,meteohub,2013-09-25 04:32:00,
2013-09-24 22:37:00,38.3,38.1,23.96,SW,225,10.0,10.0,99,0.00,,,0.00,meteohub,2013-09-25 04:37:00,
2013-09-24 22:42:00,39.0,38.3,23.96,SW,225,7.0,10.0,97,0.00,,,0.00,meteohub,2013-09-25 04:42:00,
2013-09-24 22:47:00,39.4,38.1,23.97,SW,225,8.0,10.0,95,0.00,,,0.00,meteohub,2013-09-25 04:47:00,
2013-09-24 22:52:00,39.4,38.1,23.96,SW,225,11.0,11.0,95,0.00,,,0.00,meteohub,2013-09-25 04:52:00,
2013-09-24 22:57:00,39.2,37.9,23.96,SW,225,10.0,14.0,95,0.00,,,0.00,meteohub,2013-09-25 04:57:00,
2013-09-24 23:02:00,39.2,38.1,23.96,West,270,11.0,14.0,96,0.00,,,0.00,meteohub,2013-09-25 05:02:00,
2013-09-24 23:07:00,39.2,38.1,23.97,West,270,11.0,14.0,96,0.00,,,0.00,meteohub,2013-09-25 05:07:00,
2013-09-24 23:12:00,39.4,38.1,23.96,West,270,8.0,12.0,95,0.00,,,0.00,meteohub,2013-09-25 05:12:00,
2013-09-24 23:17:00,39.4,38.1,23.96,NW,315,11.0,16.0,95,0.00,,,0.00,meteohub,2013-09-25 05:17:00,
2013-09-24 23:22:00,39.4,38.3,23.96,NW,315,10.0,16.0,96,0.00,,,0.00,meteohub,2013-09-25 05:22:00,
2013-09-24 23:27:00,39.2,38.1,23.97,NW,315,9.0,14.0,96,0.00,,,0.00,meteohub,2013-09-25 05:27:00,
2013-09-24 23:32:00,39.0,38.3,23.97,West,270,10.0,14.0,97,0.00,,,0.00,meteohub,2013-09-25 05:32:00,
2013-09-24 23:37:00,39.2,38.5,23.96,West,270,12.0,14.0,97,0.00,,,0.00,meteohub,2013-09-25 05:37:00,
2013-09-24 23:42:00,39.6,38.5,23.97,West,270,13.0,15.0,96,0.00,,,0.00,meteohub,2013-09-25 05:42:00,
2013-09-24 23:47:00,39.7,38.1,23.96,West,270,18.0,18.0,94,0.00,,,0.00,meteohub,2013-09-25 05:47:00,
2013-09-24 23:52:00,40.1,37.9,23.96,NW,315,21.0,21.0,92,0.00,,,0.00,meteohub,2013-09-25 05:52:00,
2013-09-24 23:57:00,40.3,37.6,23.96,NW,315,19.0,21.0,90,0.00,,,0.00,meteohub,2013-09-25 05:57:00,